Regional Weather Roundup
Issued by NWS

Home | Current Version | Previous Version | Graphics & Text | Print | Product List | Glossary On
Versions: 1 2 3 4 5 6 7 8 9 10 11 12 13 14 15 16 17 18 19 20 21 22 23 24 25 26 27 28 29 30 31 32 33 34 35 36 37 38 39 40 41 42 43 44 45 46 47 48 49 50
000
ASUS43 KMKX 261000
RWRWI

WISCONSIN REGIONAL WEATHER ROUNDUP
NATIONAL WEATHER SERVICE MILWAUKEE/SULLIVAN WI
500 AM CDT WED JUL 26 2017

NOTE: "FAIR" INDICATES FEW OR NO CLOUDS BELOW 12,000 FEET WITH NO
SIGNIFICANT WEATHER AND/OR OBSTRUCTIONS TO VISIBILITY.

WIZ001-002-006>008-014>016-023>028-261100-
NORTHWEST WISCONSIN

CITY           SKY/WX    TMP DP  RH WIND       PRES   REMARKS
SUPERIOR ARPT  NOT AVBL
ASHLAND        CLOUDY    69  68  96 SW6       29.92F
HAYWARD        CLOUDY    68  67  96 CALM      29.95F FOG
SIREN          CLOUDY    69  68  97 CALM      29.94S FOG
CUMBERLAND     CLOUDY    68  66  94 CALM      29.94F FOG
RICE LAKE      CLOUDY    69  68  96 S3        29.95F FOG
CHETEK         CLOUDY    70  69  98 CALM      29.95S
LADYSMITH      CLOUDY    69  68  96 S3        29.97F
EAU CLAIRE     CLOUDY    71  69  93 S10       29.96R
MENOMONIE      CLOUDY    71  70  95 CALM      29.98R
NEW RICHMOND   CLOUDY    73  72  97 SW8       29.99R
OSCEOLA        CLOUDY    73  73 100 W6        29.99R
$$

WIZ003>005-009-010-017-018-261100-
NORTH CENTRAL WISCONSIN

CITY           SKY/WX    TMP DP  RH WIND       PRES   REMARKS
MANITOWISH WTR CLOUDY    69  69 100 SW3       29.96S
ARBOR VITAE    CLOUDY    72  70  93 W5        29.96S
WOODRUFF       CLOUDY    72  70  93 W5        29.96S
RHINELANDER    CLOUDY    69  68  96 SW13G24   29.97F
EAGLE RIVER    CLOUDY    69  67  94 SW5       29.96F
LAND O LAKES   CLOUDY    69  66  89 SW5       29.98F
PHILLIPS       CLOUDY    68  68 100 SW7       29.96R
TOMAHAWK         N/A     67  65  95 S3        29.98F
MEDFORD        CLOUDY    67  66  97 S7        30.00R
MERRILL        NOT AVBL
$$

WIZ029-030-035-036-043>047-261100-
CENTRAL WISCONSIN

CITY           SKY/WX    TMP DP  RH WIND       PRES   REMARKS
WAUSAU         CLOUDY    68  67  96 S9        29.99F
MOSINEE        CLOUDY    64  64 100 S7        30.02F
MARSHFIELD     CLOUDY    68  65  90 S8        30.01S
STEVENS POINT  CLOUDY    65  65 100 S6        30.02F
WAUPACA        CLOUDY    69  63  81 SE6       30.03F
WAUTOMA        CLOUDY    67  63  87 CALM      30.04S
WISC RAPIDS    MOCLDY    69  66  90 S6        30.02F
CAMP DOUGLAS   NOT AVBL
$$

WIZ011>013-019>022-031-037>040-048>050-261100-
NORTHEAST WISCONSIN

CITY           SKY/WX    TMP DP  RH WIND       PRES   REMARKS
ANTIGO         CLOUDY    66  66 100 W9        30.01F
SHAWANO        LGT RAIN  67  64  90 S7        29.96F
OCONTO         CLOUDY    67  63  85 SW8       30.01S
STURGEON BAY   LGT RAIN  65  62  90 SW13      30.02S
GREEN BAY      LGT RAIN  68  65  90 S10       30.01F
MANITOWOC      NOT AVBL
APPLETON       LGT RAIN  66  59  77 NW9G23    30.07R
CLINTONVILLE   CLOUDY   N/A N/A N/A SW8       30.01F
OSHKOSH        CLOUDY    68  60  75 S12       30.02F
$$

WIZ032>034-041-042-053>061-261100-
SOUTHWEST WISCONSIN

CITY           SKY/WX    TMP DP  RH WIND       PRES   REMARKS
LA CROSSE      CLOUDY    75  70  84 S7        29.99R
SPARTA         CLOUDY    69  66  89 CALM      30.01S
VIROQUA        CLOUDY    69  69  99 S8        30.03S
BOSCOBEL       MOCLDY    70  67  90 SE3       30.03R
PRAIRIE DU CHI CLOUDY    73  66  76 SE3       30.01S
PLATTEVILLE    PTCLDY    68  68 100 S7        30.04S
$$

WIZ056-057-062-063-064-067-068-261100-
SOUTH CENTRAL WISCONSIN

CITY           SKY/WX    TMP DP  RH WIND       PRES   REMARKS
REEDSBURG      CLOUDY    67  67  99 S5        30.04R
BARABOO/DELLS  CLOUDY    69  62  78 S9        30.04R
LONE ROCK      CLOUDY    69  66  90 CALM      30.04R
MINERAL POINT  MOCLDY    68  68 100 SE7       30.05R
MADISON        MOCLDY    69  62  78 S10       30.05F
MIDDLETON      MOCLDY    68  62  82 CALM      30.06F
WATERTOWN      MOCLDY    65  63  93 S8        30.06F
MONROE         CLOUDY    64  61  88 S7        30.06F
JANESVILLE     PTCLDY    64  63  94 SE3       30.06F
$$

WIZ051-052-058>065-066-070>072-261100-
SOUTHEAST WISCONSIN

CITY           SKY/WX    TMP DP  RH WIND       PRES   REMARKS
MILWAUKEE      CLOUDY    69  59  70 S9        30.07F
WAUKESHA       MOCLDY    63  55  77 S7        30.09F
MILWAUKEE/TIMM CLOUDY    68  54  60 S8        30.08F
RACINE         MOCLDY    69  59  70 S5        30.10F
KENOSHA        PTCLDY    67  58  72 S8        30.08F
FOND DU LAC    CLOUDY    69  58  67 S10       30.03F
SHEBOYGAN      CLOUDY    67  61  81 S10       30.04F
WEST BEND      CLOUDY    64  59  82 S7        30.05F
JUNEAU         CLOUDY    65  60  83 S10       30.06F
$$

LSZ147-162-261100-
LAKE SUPERIOR

STATION/POSITION TIME  TEMP    WIND        PRES    WAVE
                       AIR SEA DIR/SP/G            HT/PER
                 (UTC) (F)     (DEG/KT/KT) (MB)    (FT/S)
W MID LAKE BUOY  0850   57 52  220/ 10/ 12 1011.4F   1/ 3
DEVILS ISLAND    0900   65     230/ 13/ 14 1012.0R
PORT WING        0730   66     180/  5/  7 1012.5S
SAXON HARBOR     0930   72     210/  6/  8 1012.5R
$$

LMZ867-665-643>646-261100-
LAKE MICHIGAN

STATION/POSITION TIME  TEMP    WIND        PRES    WAVE
                       AIR SEA DIR/SP/G            HT/PER
                 (UTC) (F)     (DEG/KT/KT) (MB)    (FT/S)
CHAMBERS ISLAND  0940   70     200/ 11/ 19 1014.6F
S GREEN BAY BUOY 0930   70 72  220/ 16/ 19 1016.2R
N MID LAKE BUOY  0850   66 66  180/ 19/ 25 1016.2F   3/ 5
NORTHPORT PIER   0940   66     180/  4/  6 1015.6S
KEWAUNEE LAKESHO 0930   69     210/  9/ 12 1016.3S
SHEBOYGAN LAKESH 0900   71     200/ 15/ 17 1017.3F
PORT WASHINGTON  0930   70     200/  4/  9 1018.6F
ATWATER BUOY     0809   70 68  180/ 10/ 12 1018.6F
MILWAUKEE LAKESH 0930   70     210/ 11/ 12   N/A
S MID LAKE BUOY  0850   72 71  180/ 17/ 21 1018.4F   2/ 4
KENOSHA   LAKESH 0900   70     200/ 10/ 13 1018.6
$$

TC  - TEMPERATURE IN CELSIUS
VSB - VISIBILITY IN STATUTE MILES
WCI - WIND CHILL INDEX
HX  - HEAT INDEX





USA.gov is the U.S. government's official web portal to all federal, state and local government web resources and services.